Conway, SC

10:11 PM EST on February 05, 2016 (GMT -0500)
Conway-Horry County

Weather History for KHYW - August, 2014

Change the Weather History Date:

Monday, August 18, 2014

  Actual Average Record
Temperature  
Mean Temperature 81 °F -  
Max Temperature 91 °F 89 °F 95 °F (2010)
Min Temperature 71 °F 70 °F 68 °F (2011)
Cooling Degree Days 16    
Growing Degree Days 31 (Base 50)    
Moisture  
Dew Point 74 °F    
Average Humidity 82    
Maximum Humidity 100    
Minimum Humidity 55    
Precipitation  
Precipitation 0.00 in - - ()
Sea Level Pressure  
Sea Level Pressure 29.90 in    
Wind  
Wind Speed 4 mph (SW)    
Max Wind Speed 13 mph    
Max Gust Speed 18 mph    
Visibility 6 miles    
Events Thunderstorm    
Averages and records for this station are not official NWS values.
T = Trace of Precipitation, MM = Missing Value Source: NWS Daily Summary

Daily Weather History Graph

Daily Weather History Graph

Search for Another Location

Airport or City:

Trip Planner

Search our weather history database for the weather conditions in past years. The results will help you decide how hot, cold, wet, or windy it might be!

Date:

Astronomy

Aug. 18, 2014 Rise Set
Actual Time 6:40 AM EDT 7:59 PM EDT
Civil Twilight 6:14 AM EDT 8:25 PM EDT
Nautical Twilight 5:42 AM EDT 8:56 PM EDT
Astronomical Twilight 5:10 AM EDT 9:29 PM EDT
Moon 12:49 AM EDT (8/18) 2:56 PM EDT (8/18)
Length of Visible Light 14h 11m
Length of Day
13h 19m
Last Quarter, 38% of the Moon is Illuminated
Aug 18
Last Quarter
Aug 25
New
Sep 2
First Quarter
Sep 8
Full
Sep 15
Last Quarter

Hourly Weather History & Observations

Time (EDT) Temp. Heat Index Dew Point Humidity Pressure Visibility Wind Dir Wind Speed Gust Speed Precip Events Conditions
12:15 AM 75.2 °F - 75.2 °F 100% 29.98 in 7.0 mi SSW 4.6 mph - N/A   Clear
12:35 AM 75.2 °F - 75.2 °F 100% 29.98 in 7.0 mi SSW 3.5 mph - N/A   Clear
12:55 AM 75.2 °F - 75.2 °F 100% 29.97 in 7.0 mi SW 3.5 mph - N/A   Clear
1:15 AM 73.4 °F - 73.4 °F 100% 29.97 in 7.0 mi Calm Calm - N/A   Clear
1:35 AM 73.4 °F - 73.4 °F 100% 29.96 in 7.0 mi Calm Calm - N/A   Clear
2:15 AM 73.4 °F - 73.4 °F 100% 29.95 in 5.0 mi Calm Calm - N/A   Clear
2:35 AM 71.6 °F - 71.6 °F 100% 29.95 in 5.0 mi Calm Calm - N/A   Clear
3:15 AM 71.6 °F - 71.6 °F 100% 29.94 in 5.0 mi Calm Calm - N/A   Clear
3:35 AM 73.4 °F - 73.4 °F 100% 29.93 in 5.0 mi Calm Calm - N/A   Clear
3:55 AM 73.4 °F - 73.4 °F 100% 29.93 in 5.0 mi SSW 3.5 mph - N/A   Clear
4:15 AM 75.2 °F - 75.2 °F 100% 29.94 in 5.0 mi SW 3.5 mph - N/A   Clear
4:35 AM 75.2 °F - 75.2 °F 100% 29.93 in 5.0 mi SSW 3.5 mph - N/A   Clear
4:55 AM 75.2 °F - 75.2 °F 100% 29.94 in 5.0 mi SW 3.5 mph - N/A   Clear
5:15 AM 75.2 °F - 75.2 °F 100% 29.94 in 7.0 mi SSW 3.5 mph - N/A   Clear
5:35 AM 77.0 °F - 77.0 °F 100% 29.94 in 5.0 mi Calm Calm - N/A   Clear
5:55 AM 77.0 °F - 77.0 °F 100% 29.94 in 5.0 mi SW 4.6 mph - N/A   Clear
6:15 AM 75.2 °F - 75.2 °F 100% 29.94 in 5.0 mi SW 4.6 mph - N/A   Clear
6:35 AM 75.2 °F - 75.2 °F 100% 29.94 in 5.0 mi SW 4.6 mph - N/A   Clear
6:55 AM 75.2 °F - 75.2 °F 100% 29.94 in 7.0 mi SSW 3.5 mph - N/A   Clear
7:15 AM 75.2 °F - 75.2 °F 100% 29.94 in 4.0 mi SSW 4.6 mph - N/A   Clear
7:35 AM 75.2 °F - 75.2 °F 100% 29.95 in 5.0 mi SW 3.5 mph - N/A   Clear
7:55 AM 77.0 °F - 77.0 °F 100% 29.94 in 7.0 mi SSW 3.5 mph - N/A   Clear
8:15 AM 77.0 °F - 77.0 °F 100% 29.94 in - SSW 4.6 mph - N/A   Unknown
8:35 AM 78.8 °F - 78.8 °F 100% 29.95 in - SW 6.9 mph - N/A   Unknown
8:55 AM 78.8 °F - 77.0 °F 94% 29.94 in - WSW 4.6 mph - N/A   Unknown
9:15 AM 80.6 °F 87.1 °F 77.0 °F 89% 29.94 in - WSW 4.6 mph - N/A   Unknown
9:35 AM 80.6 °F 85.4 °F 73.4 °F 79% 29.94 in - WSW 6.9 mph - N/A   Clear
9:55 AM 82.4 °F 88.2 °F 73.4 °F 74% 29.93 in - West 4.6 mph - N/A   Clear
10:15 AM 82.4 °F 88.2 °F 73.4 °F 74% 29.94 in - WSW 3.5 mph - N/A   Clear
10:35 AM 84.2 °F 90.9 °F 73.4 °F 70% 29.94 in - SW 3.5 mph - N/A   Clear
10:55 AM 86.0 °F 93.4 °F 73.4 °F 66% 29.94 in - SSW 5.8 mph - N/A   Clear
11:15 AM 86.0 °F 93.4 °F 73.4 °F 66% 29.94 in - SW 4.6 mph - N/A   Clear
11:35 AM 86.0 °F 93.4 °F 73.4 °F 66% 29.93 in - WSW 6.9 mph - N/A   Clear
11:55 AM 87.8 °F 93.8 °F 71.6 °F 58% 29.93 in - WSW 8.1 mph - N/A   Clear
12:15 PM 87.8 °F 95.6 °F 73.4 °F 62% 29.92 in - South 9.2 mph - N/A   Clear
12:35 PM 89.6 °F 98.2 °F 73.4 °F 59% 29.92 in - WSW 8.1 mph - N/A   Clear
12:55 PM 89.6 °F 98.2 °F 73.4 °F 59% 29.91 in - SW 6.9 mph - N/A   Scattered Clouds
1:15 PM 89.6 °F 96.2 °F 71.6 °F 55% 29.91 in - SW 8.1 mph - N/A   Clear
1:35 PM 89.6 °F 98.2 °F 73.4 °F 59% 29.90 in - SW 5.8 mph - N/A   Scattered Clouds
1:55 PM - - - N/A% - - North - - N/A   Unknown
2:15 PM 91.4 °F 100.1 °F 73.4 °F 55% 29.89 in 7.0 mi WSW 8.1 mph - N/A   Scattered Clouds
2:35 PM 89.6 °F 98.2 °F 73.4 °F 59% 29.88 in 7.0 mi SW 6.9 mph - N/A   Scattered Clouds
2:55 PM 89.6 °F 98.2 °F 73.4 °F 59% 29.87 in 7.0 mi SW 6.9 mph - N/A   Scattered Clouds
3:15 PM 91.4 °F 100.1 °F 73.4 °F 55% 29.86 in 7.0 mi West 5.8 mph - N/A   Clear
3:35 PM 91.4 °F 100.1 °F 73.4 °F 55% 29.85 in 7.0 mi West 8.1 mph - N/A   Scattered Clouds
3:55 PM 91.4 °F 100.1 °F 73.4 °F 55% 29.84 in 7.0 mi WSW 8.1 mph - N/A   Scattered Clouds
4:15 PM 91.4 °F 100.1 °F 73.4 °F 55% 29.83 in 7.0 mi SW 6.9 mph - N/A   Scattered Clouds
4:35 PM 91.4 °F 100.1 °F 73.4 °F 55% 29.82 in 7.0 mi SW 6.9 mph - N/A   Scattered Clouds
4:55 PM 91.4 °F 100.1 °F 73.4 °F 55% 29.82 in 5.0 mi SW 9.2 mph - N/A   Haze
5:15 PM 89.6 °F 96.2 °F 71.6 °F 55% 29.81 in 7.0 mi SW 8.1 mph - N/A   Clear
5:35 PM 87.8 °F 95.6 °F 73.4 °F 62% 29.81 in 7.0 mi SSW 3.5 mph - N/A   Clear
5:55 PM 86.0 °F 93.4 °F 73.4 °F 66% 29.81 in 7.0 mi Calm Calm - N/A   Clear
6:15 PM 86.0 °F 95.1 °F 75.2 °F 70% 29.81 in 7.0 mi Calm Calm - N/A Thunderstorm Scattered Clouds
6:35 PM 86.0 °F 95.1 °F 75.2 °F 70% 29.81 in 7.0 mi WSW 3.5 mph - N/A   Clear
6:55 PM 86.0 °F 95.1 °F 75.2 °F 70% 29.82 in 7.0 mi SW 4.6 mph - N/A Thunderstorm Clear
7:15 PM 82.4 °F 88.2 °F 73.4 °F 74% 29.83 in 7.0 mi SW 5.8 mph - N/A   Light Drizzle
7:35 PM 80.6 °F 84.6 °F 71.6 °F 74% 29.82 in 7.0 mi Calm Calm - N/A Thunderstorm Clear
7:55 PM 80.6 °F 84.6 °F 71.6 °F 74% 29.83 in 7.0 mi Calm Calm - N/A Thunderstorm Thunderstorm
8:15 PM 78.8 °F - 73.4 °F 83% 29.82 in 7.0 mi South 4.6 mph - N/A Thunderstorm Thunderstorm
8:35 PM 78.8 °F - 71.6 °F 78% 29.85 in 7.0 mi SW 12.7 mph 18.4 mph N/A Thunderstorm Thunderstorm
8:55 PM 78.8 °F - 71.6 °F 78% 29.86 in 7.0 mi South 10.4 mph 16.1 mph N/A Thunderstorm Scattered Clouds
9:15 PM 75.2 °F - 73.4 °F 94% 29.85 in 7.0 mi SSW 6.9 mph - N/A Thunderstorm Scattered Clouds
9:35 PM 75.2 °F - 73.4 °F 94% 29.85 in 7.0 mi SSW 6.9 mph - N/A   Clear
9:55 PM 75.2 °F - 73.4 °F 94% 29.86 in 7.0 mi SSW 5.8 mph - N/A   Clear
10:15 PM 75.2 °F - 73.4 °F 94% 29.86 in 7.0 mi SW 5.8 mph - N/A   Clear
10:35 PM 75.2 °F - 71.6 °F 89% 29.86 in 7.0 mi SSW 6.9 mph - N/A   Clear
10:55 PM 75.2 °F - 73.4 °F 94% 29.86 in 7.0 mi SSW 6.9 mph - N/A   Clear
11:15 PM 73.4 °F - 73.4 °F 100% 29.85 in 7.0 mi SSW 8.1 mph - N/A   Clear
11:35 PM 73.4 °F - 73.4 °F 100% 29.85 in 7.0 mi SSW 5.8 mph - N/A   Clear